STARLINK-1587, 46157

Orbit data source: Space-Track

STARLINK-1587, 46157 is a payload satellite owned by SpaceX/Seattle (US) in LEO that was launched on Tue, 18 Aug 2020 UTC via an FALCON 9 launch vehicle from the Air Force Eastern Test Range (AFETR). Payloads include a variety of satellites, spacecraft, and rockets equipped with specific instruments for various scientific and technological missions. These include communications satellites like Starlink; space stations such as the ISS; scientific satellites like the Hubble; Earth observation satellites from companies like Planet Labs, Umbra, and HawkEye 360; GPS; miniature CubeSats for education and research; and military/defense satellites.

Loading next visibility...
STARLINK-1587 details
Identifier
46157, 2020-057AS
Orbit
LEO
Last TLE update23 hours ago
Origin
Flag of USSpaceX/Seattle (US)
ManufacturerSpaceX/Seattle
MissionOperational Commercial Communications
Bus & MotorSTARLINK, Unknown motor
Mass260 kg wet, ~248 kg dry
Launch date (UTC)
2020-08-18 (4 years ago)
Launch vehicle
FALCON 9
Launch site
Air Force Eastern Test Range (AFETR)
Object type
Payload
Rocket body
Debris
Shape & HBRBox + 1 Pan, 8.86 m
Radar Cross Section13.562 m², Large (>1 m²)

Expand to show TLE details & history

TLE from 23 hours ago
0 STARLINK-1587
1 46157U 20057AS  24348.16911574  .00014756  00000-0  10075-2 0  9990
2 46157  53.0533 143.5677 0001159  96.0658 264.0463 15.06398230238574
Epoch: 2024-12-13T04:03Z
Definitive object data (Epoch: 2024-12-13T04:03:31.599Z)
Latitude-0.00005°
Longitude0.34705°
Altitude548.179 km
Speed7.589 km/s
True Right ascension09h 34m 16s
True Declination0° 00' 00"
Sunlit
Object was in full shadow at TLE epoch
Visualization TLE readout
Latitude-10.50752°
Longitude-176.00926°
Altitude550.021 km
Speed7.587 km/s
Apparent Right ascension18h 51m 18s
Apparent Declination-41° 34' 32"
Sunlit
Object is in daylight
Visualization observer readout
Local Sidereal Time01:44:56
Azimuth241.344° WSW
Elevation-33.976°
Doppler factor1
Orbital elements
Apogee altitude548.291 km
Perigee altitude546.685 km
Semi-major axis6,925.625 km
Eccentricity0.0001159
Inclination53.0533°
RAAN143.5677°
Arg. of periapsis96.0658°
True anomaly264.03309°
Mean anomaly264.0463°
Eccentric anomaly264.0397°
Mean motion3.76578 °/min
BSTAR0.0010075
Orbital period95.6 mins
Loading maneuver chart data...
Loading historical data...
Loading historical data...
Loading historical data...
Loading historical data...
Loading historical data...
Loading historical data...
Loading historical data...

STARLINK-1587 Visibility forecast

Observer location: undefined°, undefined

Span
Click to sort rows by Start time (UTC) header in descending order
Start Az.
Max El. time (UTC)
Max El. Az.
Max El.
End time (UTC)
End Az.
6 mins2024-12-14 12:03:15.253Z179.355° S2024-12-14 12:06:15.253Z125.241° SE22.176°2024-12-14 12:09:15.253Z76.207° E
6 mins2024-12-14 13:43:15.253Z262.317° W2024-12-14 13:45:15.253Z319.065° NNW36.581°2024-12-14 13:49:15.253Z41.014° NE
4 mins2024-12-14 15:24:15.253Z321.205° NNW2024-12-14 15:25:15.253Z337.717° N15.279°2024-12-14 15:28:15.253Z24.69° NE
5 mins2024-12-14 18:45:15.253Z343.091° N2024-12-14 18:47:15.253Z30.6° NE26.806°2024-12-14 18:50:15.253Z87.019° E
6 mins2024-12-14 20:24:15.253Z290.919° WNW2024-12-14 20:27:15.253Z204.97° SW34.553°2024-12-14 20:30:15.253Z154.832° SSE
|